Station: Robe Airport  

  Atmospheric Gas Attenuation - ITU Rec 676-11   ----------------- dB/100km -----------------
Date Time Temp RH % AH g/m3 Dew Point Wind Direction Speed kph Gust kph Barometer mB Rainfall Since 9am 24GHz 47GHz 76GHz 122GHz 134GHz 241GHz
08/05 11:50 15 77 9.87 11 22 26 1028.7 0 22.2 28.2 45.1 118.3 115.2 397.3
08/05 11:40 14.9 76 9.69 10.7 22 28 1028.8 0 21.8 27.9 44.4 116.5 112.9 389.2
08/05 11:30 15.2 75 9.73 10.8 20 30 1028.8 0 21.9 27.9 44.4 116.5 113.0 389.6
08/05 11:20 15.2 73 9.48 10.4 15 22 1028.8 0 21.4 27.5 43.3 113.7 109.6 377.7
08/05 11:10 15 75 9.62 10.6 24 32 1028.8 0 21.7 27.8 44.0 115.6 111.8 385.3
08/05 11:00 15.5 76 10.05 11.3 24 30 1028.7 0 22.6 28.4 45.5 119.6 116.9 403.3
08/05 10:50 15 76 9.75 10.8 24 32 1028.7 0 22.0 28.0 44.6 117.0 113.6 391.5
08/05 10:40 15.2 76 9.86 11 17 24 1028.7 0 22.2 28.1 44.9 117.9 114.8 395.8
08/05 10:30 14.9 77 9.81 10.9 24 33 1028.9 0 22.1 28.2 44.9 117.8 114.5 394.9
08/05 10:20 15 79 10.13 11.4 22 28 1028.8 0 22.8 28.7 46.2 121.2 118.8 409.8
08/05 10:10 15.5 70 9.25 10 19 20 1028.6 0 20.9 27.0 42.2 110.8 106.1 365.4
08/05 10:00 15.6 74 9.84 11 24 33 1028.7 0 22.1 28.0 44.6 117.1 113.9 392.8
08/05 09:50 15.2 78 10.12 11.4 26 28 1028.7 0 22.7 28.6 46.0 120.8 118.3 408.3
08/05 09:40 15.4 77 10.12 11.5 19 24 1028.7 0 22.7 28.5 45.9 120.5 118.0 407.2
08/05 09:30 14.6 82 10.26 11.6 28 41 1028.8 0 23.1 29.0 47.0 123.3 121.2 418.3
08/05 09:20 14.8 79 10.01 11.3 30 39 1028.9 0 22.5 28.5 45.8 120.2 117.4 405.1
08/05 09:10 14.9 80 10.2 11.6 20 26 1028.8 0 22.9 28.8 46.5 122.2 119.9 413.8
08/05 09:00 14.4 84 10.38 11.7 24 33 1028.9 0 23.3 29.3 47.6 125.0 123.2 425.3
08/05 08:50 14.7 79 9.95 11.1 30 33 1028.8 0.4 22.4 28.5 45.6 119.7 116.8 402.7
08/05 08:40 14.9 75 9.56 10.5 20 22 1028.5 0.4 21.6 27.7 43.8 115.0 111.1 382.9
08/05 08:30 14.6 79 9.89 11 20 35 1028.4 0.4 22.3 28.4 45.4 119.1 116.0 400.2
08/05 08:20 13.9 83 9.95 11 24 30 1028.4 0.4 22.4 28.7 46.0 120.9 117.9 406.7
08/05 08:10 14 83 10.01 11.1 30 41 1028.4 0.4 22.6 28.8 46.2 121.4 118.6 409.1
08/05 08:00 14.9 79 10.07 11.3 20 28 1028.1 0.4 22.6 28.6 45.9 120.6 118.1 407.2
08/05 07:50 14.3 77 9.46 10.3 24 30 1028 0.4 21.4 27.7 43.7 114.7 110.5 380.9
08/05 07:40 14.2 80 9.77 10.9 24 32 1027.8 0.4 22.0 28.3 45.1 118.3 114.9 396.2
08/05 07:30 14.2 80 9.77 10.8 24 37 1027.7 0.4 22.0 28.3 45.1 118.3 114.9 396.2
08/05 07:20 14.2 83 10.14 11.3 22 28 1027.7 0.4 22.8 28.9 46.6 122.5 120.1 414.2
08/05 07:10 14 84 10.13 11.3 19 26 1027.5 0.4 22.8 28.9 46.7 122.7 120.2 414.7
08/05 07:00 14.2 84 10.26 11.5 20 37 1027.4 0.4 23.1 29.1 47.1 123.8 121.7 420.0
08/05 06:50 13.7 82 9.71 10.8 19 24 1027.3 0.4 21.9 28.3 45.1 118.3 114.8 395.7
08/05 06:40 13.7 85 10.07 11.2 26 32 1027.2 0.4 22.7 28.9 46.6 122.4 119.8 413.3
08/05 06:30 13.9 87 10.43 11.8 19 30 1027.1 0.4 23.5 29.5 48.0 126.2 124.6 429.9
08/05 06:20 13.8 86 10.25 11.5 22 26 1027.1 0.4 23.1 29.2 47.3 124.3 122.2 421.6
08/05 06:10 14 81 9.77 10.8 24 32 1027.1 0.4 22.1 28.3 45.1 118.5 115.2 397.0
08/05 06:00 13.7 89 10.54 11.9 19 28 1027 0.4 23.7 29.7 48.6 127.8 126.5 436.5
08/05 05:50 13.7 89 10.54 11.9 28 35 1027 0.4 23.7 29.7 48.6 127.8 126.5 436.5
08/05 05:40 13.9 86 10.31 11.6 24 32 1027.1 0.4 23.2 29.3 47.5 124.8 122.9 424.0
08/05 05:30 13.6 87 10.24 11.5 24 37 1026.8 0.4 23.1 29.2 47.4 124.5 122.3 422.1
08/05 05:20 13.4 91 10.58 11.9 30 33 1026.8 0.4 23.8 29.9 49.0 128.7 127.5 440.1
08/05 05:10 13.6 91 10.71 12.1 22 32 1026.9 0.4 24.1 30.1 49.4 129.9 129.1 445.5
08/05 05:00 13.4 90 10.46 11.8 22 37 1026.8 0.4 23.6 29.7 48.5 127.3 125.8 434.1
08/05 04:50 13.5 89 10.41 11.7 32 37 1026.8 0.4 23.5 29.6 48.2 126.6 124.9 431.1
08/05 04:40 14 86 10.37 11.7 26 39 1026.7 0.4 23.3 29.3 47.7 125.3 123.5 426.3
08/05 04:30 13.8 86 10.25 11.5 22 37 1026.6 0.4 23.1 29.2 47.3 124.2 122.1 421.4
08/05 04:20 14 86 10.37 11.7 20 26 1026.7 0.4 23.3 29.3 47.7 125.3 123.5 426.3
08/05 04:10 14.4 81 10.01 11.3 22 32 1026.6 0.4 22.6 28.6 45.9 120.6 117.8 406.4
08/05 04:00 14 83 10.01 11.2 19 32 1026.6 0.4 22.6 28.7 46.1 121.2 118.5 408.5
08/05 03:50 13.8 84 10.01 11.1 22 33 1026.6 0.4 22.6 28.8 46.3 121.5 118.8 409.6
08/05 03:40 14 84 10.13 11.3 17 22 1026.6 0.4 22.8 28.9 46.7 122.5 120.1 414.4
08/05 03:30 14.1 81 9.83 10.9 19 32 1026.4 0.4 22.2 28.3 45.3 119.0 115.8 399.2
08/05 03:20 13.8 83 9.89 10.9 17 20 1026.5 0.4 22.3 28.5 45.7 120.1 117.1 403.7
08/05 03:10 13.7 84 9.95 11 19 26 1026.7 0.4 22.5 28.7 46.1 121.0 118.1 407.2
08/05 03:00 13.4 85 9.88 10.9 22 35 1026.7 0.4 22.3 28.7 45.9 120.6 117.6 405.4
08/05 02:50 13.3 89 10.28 11.5 19 26 1026.7 0.4 23.2 29.4 47.7 125.4 123.4 425.7
08/05 02:40 13.7 89 10.54 11.9 22 28 1026.7 0.2 23.7 29.7 48.6 127.8 126.4 436.4
08/05 02:30 13.8 85 10.13 11.3 20 32 1026.8 0.2 22.8 29.0 46.8 122.9 120.5 415.6
08/05 02:20 14 80 9.65 10.6 24 32 1026.8 0.2 21.8 28.1 44.6 117.1 113.5 391.1
08/05 02:10 13.6 81 9.53 10.4 17 20 1026.9 0.2 21.6 28.0 44.4 116.4 112.4 387.4
08/05 02:00 13.4 88 10.23 11.5 15 26 1026.9 0.2 23.1 29.3 47.5 124.7 122.5 422.7
08/05 01:50 13.6 88 10.36 11.6 15 19 1026.9 0.2 23.3 29.4 47.9 125.9 124.1 428.0
08/05 01:40 13.6 86 10.12 11.4 13 19 1027 0.2 22.8 29.0 46.9 123.1 120.7 416.2
08/05 01:30 13.4 87 10.11 11.3 17 32 1027.2 0.2 22.8 29.1 47.0 123.3 120.9 416.8
08/05 01:20 13.5 86 10.06 11.2 15 20 1027.1 0.2 22.7 29.0 46.7 122.6 120.0 413.8
08/05 01:10 14 81 9.77 10.8 24 37 1027.3 0 22.1 28.3 45.2 118.6 115.2 397.1
08/05 01:00 13.7 82 9.71 10.7 22 37 1027.2 0 21.9 28.3 45.1 118.3 114.8 395.7
08/05 00:50 13.3 86 9.94 11.1 15 19 1027.2 0 22.5 28.8 46.3 121.5 118.6 409.0
08/05 00:40 13.3 88 10.17 11.3 26 32 1027.3 0 23.0 29.2 47.3 124.2 121.9 420.4
08/05 00:30 13.5 86 10.06 11.2 22 39 1027.5 0 22.7 29.0 46.7 122.6 120.0 413.9
08/05 00:20 13.7 82 9.71 10.8 22 28 1027.7 0 21.9 28.3 45.1 118.4 114.8 395.8
08/05 00:10 14.2 78 9.52 10.4 20 28 1027.6 0 21.5 27.8 44.0 115.5 111.5 384.1
08/05 00:00 14.3 74 9.09 9.7 19 33 1027.5 0 20.6 27.1 42.2 110.6 105.5 363.2
07/05 23:50 14.4 73 9.02 9.6 22 28 1027.6 0 20.4 26.9 41.8 109.7 104.4 359.4
07/05 23:40 14.3 72 8.85 9.3 24 32 1027.6 0 20.1 26.7 41.2 108.0 102.3 351.9
07/05 23:30 14.3 75 9.21 9.9 20 35 1027.6 0 20.8 27.3 42.7 111.9 107.1 368.9
07/05 23:20 14.3 75 9.21 9.9 26 32 1027.6 0 20.8 27.3 42.7 111.9 107.1 368.9
07/05 23:10 14.5 73 9.08 9.7 24 32 1027.4 0 20.6 27.0 42.0 110.2 105.1 361.7
07/05 23:00 14.4 73 9.02 9.6 17 35 1027.5 0 20.4 26.9 41.8 109.7 104.4 359.4
07/05 22:50 14.2 74 9.04 9.6 19 24 1027.6 0 20.5 27.0 42.0 110.2 104.9 361.3
07/05 22:40 14.1 73 8.86 9.3 22 28 1027.9 0 20.1 26.8 41.4 108.4 102.7 353.4
07/05 22:30 14.4 72 8.9 9.4 20 30 1027.7 0 20.2 26.8 41.4 108.4 102.8 353.8
07/05 22:20 14.4 70 8.65 9 19 24 1027.6 0 19.7 26.3 40.3 105.7 99.5 342.2
07/05 22:10 14.4 69 8.53 8.8 22 30 1027.7 0 19.4 26.1 39.9 104.4 97.9 336.6
07/05 22:00 14.2 72 8.79 9.2 19 28 1027.8 0 20.0 26.6 41.0 107.5 101.6 349.6
07/05 21:50 14.3 74 9.09 9.7 26 32 1027.9 0 20.6 27.1 42.2 110.6 105.5 363.3
07/05 21:40 14.4 70 8.65 9 28 37 1027.9 0 19.6 26.4 40.4 105.7 99.5 342.2
07/05 21:30 14.3 68 8.35 8.5 22 35 1028 0 19.0 25.9 39.2 102.7 95.7 328.8
07/05 21:20 14.3 67 8.23 8.2 20 30 1028 0 18.8 25.7 38.7 101.4 94.1 323.3
07/05 21:10 14.3 64 7.86 7.6 26 33 1028 0 18.0 25.1 37.3 97.5 89.3 306.5
07/05 21:00 14.1 71 8.62 8.9 19 32 1028 0 19.6 26.4 40.4 105.8 99.5 342.2
07/05 20:50 14.4 69 8.53 8.8 22 33 1027.9 0 19.4 26.2 39.9 104.4 97.9 336.7
07/05 20:40 14.5 67 8.33 8.6 20 26 1027.8 0 19.0 25.8 39.0 102.2 95.2 327.0
07/05 20:30 14.4 69 8.53 8.8 19 30 1027.7 0 19.4 26.1 39.9 104.4 97.9 336.6
07/05 20:20 14.4 69 8.53 8.8 19 22 1027.8 0 19.4 26.2 39.9 104.4 97.9 336.7
07/05 20:10 14.4 67 8.28 8.3 24 30 1027.7 0 18.9 25.7 38.9 101.8 94.6 325.1
07/05 20:00 14.3 68 8.35 8.5 19 28 1027.7 0 19.0 25.9 39.2 102.6 95.6 328.8
07/05 19:50 14.3 67 8.23 8.2 20 24 1027.6 0 18.8 25.7 38.7 101.3 94.1 323.2
07/05 19:40 14.2 66 8.06 8.1 19 26 1027.8 0 18.4 25.5 38.1 99.7 92.0 315.9
07/05 19:30 14.1 66 8.01 7.9 20 35 1027.9 0 18.3 25.4 37.9 99.3 91.5 314.1
07/05 19:20 14.1 65 7.89 7.6 20 26 1027.9 0 18.0 25.2 37.5 98.0 89.9 308.6

Last Refresh: 08-May-2026 11:50:14

Bureau of Meteorology